Flag for Greece Weather past 2 weeks in Nikaia, Greece

Now
95 °F

Passing clouds.


Feels Like: 95 °F
Forecast: 79 / 88 °F
Wind: 10 mph from North

Location: Elefsis Airport

Current Time: Aug 28, 2014 at 7:10:59 PM

Latest Report: Aug 28, 2014 at 6:20 PM


Visibility: N/A

Pressure: 29.77 "Hg

Humidity: 32%

Dew point: 61 °F

Location of NikaiaLocation

Historic Weather in Nikaia — Graph

°F

Nikaia temperature yesterday

Maximum temperature yesterday: 95 °F (at 3:50 PM)
Minimum temperature yesterday: 73 °F (at 5:20 AM)
Average temperature yesterday: 83 °F

Past Weeks' High & Low Weather Summary

 TemperatureHumidityPressure
High104 °F (Aug 24, 2:50 PM)74% (Aug 16, 2:20 AM)30.01 "Hg (Aug 16, 2:20 AM)
Low68 °F (Aug 21, 6:20 AM)8% (Aug 24, 3:20 PM)29.65 "Hg (Aug 17, 4:50 PM)
Average85 °F39%29.85 "Hg
* Reported Aug 13 5:20 PM — Aug 28 5:50 PM, Nikaia, Weather by CustomWeather, © 2014

Note: Actual official high and low records may vary slightly from our data, if they occured in-between our weather recording intervals... More about our weather records

Advertising

Nikaia weather history for previous 24 hours

 ConditionsComfort  
Time TempWeatherWind HumidityBarometerVisibility
5:50 PM
Aug 28
95 °FPassing clouds.9 mph32%29.74 "HgN/A
5:20 PM97 °FPassing clouds.7 mph28%29.74 "HgN/A
4:50 PM99 °FPassing clouds.14 mph21%29.74 "HgN/A
4:20 PM99 °FPassing clouds.16 mph21%29.74 "HgN/A
3:50 PM99 °FPassing clouds.14 mph22%29.74 "HgN/A
3:20 PM99 °FPassing clouds.16 mph24%29.74 "HgN/A
2:50 PM99 °FPassing clouds.16 mph24%29.77 "HgN/A
2:20 PM97 °FPassing clouds.15 mph27%29.77 "HgN/A
1:50 PM97 °FPassing clouds.15 mph27%29.77 "HgN/A
1:20 PM97 °FPassing clouds.9 mph25%29.77 "HgN/A
12:50 PM97 °FSunny.16 mph25%29.77 "Hg10 mi
12:20 PM97 °FSunny.17 mph25%29.77 "Hg10 mi
11:20 AM93 °FSunny.16 mph28%29.77 "Hg10 mi
10:50 AM91 °FSunny.16 mph34%29.77 "Hg10 mi
10:20 AM86 °FSunny.6 mph46%29.77 "Hg10 mi
9:50 AM86 °FSunny.7 mph46%29.77 "Hg10 mi
9:20 AM86 °FSunny.6 mph43%29.77 "Hg10 mi
8:50 AM84 °FSunny.No wind45%29.77 "Hg10 mi
8:20 AM82 °FSunny.No wind48%29.77 "Hg10 mi
7:50 AM75 °FClear.No wind57%29.77 "Hg10 mi
7:20 AM72 °FClear.No wind69%29.77 "Hg10 mi
6:50 AM73 °FClear.No wind65%29.77 "Hg10 mi
6:20 AM72 °FClear.No wind69%29.74 "Hg10 mi
5:50 AM73 °FClear.No wind65%29.74 "Hg10 mi
5:20 AM72 °FClear.No wind73%29.74 "Hg10 mi
4:50 AM72 °FClear.5 mph69%29.74 "Hg10 mi
4:20 AM73 °FClear.No wind65%29.74 "Hg10 mi
3:50 AM73 °FClear.5 mph65%29.74 "Hg10 mi
3:20 AM75 °FClear.5 mph65%29.74 "Hg10 mi
2:50 AM75 °FClear.6 mph61%29.74 "Hg10 mi
2:20 AM75 °FClear.6 mph65%29.74 "Hg10 mi
1:50 AM75 °FClear.No wind65%29.74 "Hg10 mi
1:20 AM75 °FClear.No wind65%29.77 "Hg10 mi
12:50 AM75 °FClear.No wind69%29.77 "Hg10 mi
12:20 AM77 °FClear.5 mph65%29.77 "Hg10 mi
11:50 PM
Aug 27
77 °FClear.5 mph65%29.77 "Hg10 mi
10:50 PM79 °FClear.5 mph65%29.77 "Hg10 mi
10:20 PM79 °FClear.5 mph65%29.77 "Hg10 mi
9:20 PM81 °FClear.No wind66%29.77 "Hg10 mi
8:50 PM82 °FSunny.No wind62%29.77 "Hg10 mi
8:20 PM82 °FSunny.7 mph62%29.77 "Hg10 mi
7:50 PM84 °FSunny.7 mph55%29.77 "Hg10 mi
7:20 PM84 °FSunny.8 mph55%29.77 "Hg10 mi
Weather by CustomWeather, © 2014

See weather overviewHow to use our weather pages